| time (UTC) | temp C | wind direction | speed KPH | gust KPH | rain 1hr cm | rain 24hr cm | rain mn cm | humidity % | barometer mb |
| 20260902214504 | 18 | 83 | 4.8 | 9.7 | 0.00 | 0.00 | 0.00 | 64 | 1024.1 |
| 20260902214004 | 18 | 83 | 4.8 | 8.0 | 0.00 | 0.00 | 0.00 | 63 | 1024.0 |
| 20260902213504 | 18 | 65 | 4.8 | 8.0 | 0.00 | 0.00 | 0.00 | 63 | 1024.2 |
| 20260902213004 | 18 | 58 | 4.8 | 8.0 | 0.00 | 0.00 | 0.00 | 63 | 1024.0 |
| 20260902212504 | 18 | 57 | 4.8 | 8.0 | 0.00 | 0.00 | 0.00 | 63 | 1024.0 |
| 20260902212004 | 18 | 54 | 4.8 | 8.0 | 0.00 | 0.00 | 0.00 | 63 | 1024.0 |
| 20260902211504 | 18 | 45 | 3.2 | 6.4 | 0.00 | 0.00 | 0.00 | 63 | 1024.0 |
| 20260902211004 | 18 | 43 | 3.2 | 6.4 | 0.00 | 0.00 | 0.00 | 63 | 1024.0 |
| 20260902210505 | 18 | 33 | 3.2 | 6.4 | 0.00 | 0.00 | 0.00 | 63 | 1024.1 |
| 20260902210004 | 18 | 24 | 4.8 | 6.4 | 0.00 | 0.00 | 0.00 | 63 | 1024.0 |
| 20260902205504 | 18 | 20 | 4.8 | 8.0 | 0.00 | 0.00 | 0.00 | 63 | 1024.2 |
| 20260902205004 | 18 | 18 | 4.8 | 8.0 | 0.00 | 0.00 | 0.00 | 63 | 1024.0 |
| 20260902204504 | 18 | 20 | 4.8 | 8.0 | 0.00 | 0.00 | 0.00 | 63 | 1024.0 |
| 20260902204004 | 18 | 20 | 4.8 | 6.4 | 0.00 | 0.00 | 0.00 | 63 | 1024.1 |
| 20260902203504 | 18 | 25 | 4.8 | 8.0 | 0.00 | 0.00 | 0.00 | 63 | 1023.9 |
| 20260902203004 | 18 | 35 | 4.8 | 8.0 | 0.00 | 0.00 | 0.00 | 63 | 1023.8 |
| 20260902202504 | 18 | 39 | 3.2 | 6.4 | 0.00 | 0.00 | 0.00 | 62 | 1023.7 |
| 20260902201504 | 18 | 42 | 3.2 | 4.8 | 0.00 | 0.00 | 0.00 | 63 | 1023.6 |
| 20260902201004 | 18 | 46 | 3.2 | 6.4 | 0.00 | 0.00 | 0.00 | 63 | 1023.8 |
| 20260902200504 | 19 | 45 | 4.8 | 6.4 | 0.00 | 0.00 | 0.00 | 63 | 1023.7 |
| 20260902200004 | 19 | 43 | 4.8 | 8.0 | 0.00 | 0.00 | 0.00 | 63 | 1023.5 |
| 20260902195004 | 19 | 38 | 6.4 | 9.7 | 0.00 | 0.00 | 0.00 | 63 | 1023.7 |
| 20260902194504 | 19 | 36 | 4.8 | 9.7 | 0.00 | 0.00 | 0.00 | 63 | 1023.7 |
| 20260902194004 | 19 | 34 | 4.8 | 8.0 | 0.00 | 0.00 | 0.00 | 63 | 1023.7 |
| 20260902193005 | 19 | 33 | 4.8 | 9.7 | 0.00 | 0.00 | 0.00 | 63 | 1023.5 |
| 20260902192504 | 19 | 41 | 4.8 | 9.7 | 0.00 | 0.00 | 0.00 | 63 | 1023.5 |
| 20260902192004 | 19 | 39 | 3.2 | 6.4 | 0.00 | 0.00 | 0.00 | 63 | 1023.6 |
| 20260902191504 | 19 | 42 | 4.8 | 6.4 | 0.00 | 0.00 | 0.00 | 63 | 1023.3 |
| 20260902191003 | 20 | 41 | 4.8 | 6.4 | 0.00 | 0.00 | 0.00 | 63 | 1023.5 |
| 20260902190506 | 20 | 47 | 3.2 | 6.4 | 0.00 | 0.00 | 0.00 | 63 | 1023.4 |
| 20260902190004 | 20 | 48 | 4.8 | 9.7 | 0.00 | 0.00 | 0.00 | 63 | 1023.2 |
| 20260902185505 | 20 | 44 | 4.8 | 9.7 | 0.00 | 0.00 | 0.00 | 63 | 1023.3 |
| 20260902185005 | 20 | 44 | 3.2 | 8.0 | 0.00 | 0.00 | 0.00 | 63 | 1023.3 |
| 20260902184506 | 20 | 45 | 4.8 | 8.0 | 0.00 | 0.00 | 0.00 | 63 | 1023.1 |
| 20260902183505 | 20 | 52 | 4.8 | 9.7 | 0.00 | 0.00 | 0.00 | 63 | 1022.9 |
| 20260902182506 | 21 | 61 | 4.8 | 6.4 | 0.00 | 0.00 | 0.00 | 63 | 1023.0 |
| 20260902182005 | 21 | 69 | 4.8 | 6.4 | 0.00 | 0.00 | 0.00 | 63 | 1022.9 |
| 20260902181506 | 21 | 72 | 4.8 | 8.0 | 0.00 | 0.00 | 0.00 | 63 | 1022.8 |
| 20260902180505 | 22 | 81 | 3.2 | 6.4 | 0.00 | 0.00 | 0.00 | 60 | 1022.7 |
| 20260902175506 | 22 | 66 | 1.6 | 3.2 | 0.00 | 0.00 | 0.00 | 55 | 1022.6 |
| 20260902175005 | 22 | 46 | 3.2 | 3.2 | 0.00 | 0.00 | 0.00 | 55 | 1022.4 |
| 20260902173505 | 23 | 244 | 3.2 | 8.0 | 0.00 | 0.00 | 0.00 | 52 | 1022.1 |
| 20260902172505 | 24 | 222 | 3.2 | 6.4 | 0.00 | 0.00 | 0.00 | 48 | 1022.1 |
| 20260902172006 | 24 | 219 | 3.2 | 8.0 | 0.00 | 0.00 | 0.00 | 48 | 1022.1 |
| 20260902170506 | 25 | 217 | 4.8 | 9.7 | 0.00 | 0.00 | 0.00 | 47 | 1021.9 |
| 20260902170005 | 25 | 221 | 6.4 | 11.3 | 0.00 | 0.00 | 0.00 | 47 | 1022.1 |
| 20260902165505 | 25 | 227 | 6.4 | 14.5 | 0.00 | 0.00 | 0.00 | 46 | 1021.8 |
| 20260902165005 | 25 | 226 | 8.0 | 14.5 | 0.00 | 0.00 | 0.00 | 46 | 1021.9 |
| 20260902164505 | 25 | 227 | 8.0 | 14.5 | 0.00 | 0.00 | 0.00 | 46 | 1022.1 |
| 20260902164006 | 25 | 230 | 8.0 | 14.5 | 0.00 | 0.00 | 0.00 | 46 | 1021.9 |
| 20260902163506 | 26 | 233 | 8.0 | 12.9 | 0.00 | 0.00 | 0.00 | 45 | 1021.9 |
| 20260902163005 | 26 | 232 | 8.0 | 16.1 | 0.00 | 0.00 | 0.00 | 45 | 1021.7 |
| 20260902162505 | 26 | 227 | 8.0 | 19.3 | 0.00 | 0.00 | 0.00 | 45 | 1021.8 |
| 20260902162005 | 26 | 230 | 9.7 | 19.3 | 0.00 | 0.00 | 0.00 | 45 | 1021.9 |
| 20260902161506 | 26 | 224 | 11.3 | 19.3 | 0.00 | 0.00 | 0.00 | 44 | 1022.1 |
| 20260902161006 | 27 | 220 | 9.7 | 19.3 | 0.00 | 0.00 | 0.00 | 44 | 1022.0 |
| 20260902160008 | 27 | 236 | 11.3 | 19.3 | 0.00 | 0.00 | 0.00 | 43 | 1021.9 |
| 20260902155505 | 27 | 242 | 11.3 | 19.3 | 0.00 | 0.00 | 0.00 | 44 | 1022.0 |
| 20260902155005 | 27 | 240 | 11.3 | 25.7 | 0.00 | 0.00 | 0.00 | 45 | 1022.0 |
| 20260902154505 | 27 | 247 | 14.5 | 25.7 | 0.00 | 0.00 | 0.00 | 45 | 1022.1 |
| 20260902154005 | 27 | 252 | 16.1 | 20.9 | 0.00 | 0.00 | 0.00 | 44 | 1021.9 |
| 20260902153506 | 27 | 228 | 11.3 | 20.9 | 0.00 | 0.00 | 0.00 | 44 | 1021.9 |
| 20260902153005 | 27 | 239 | 9.7 | 20.9 | 0.00 | 0.00 | 0.00 | 45 | 1022.0 |
| 20260902152505 | 26 | 239 | 9.7 | 20.9 | 0.00 | 0.00 | 0.00 | 44 | 1021.8 |
| 20260902151505 | 26 | 231 | 9.7 | 20.9 | 0.00 | 0.00 | 0.00 | 45 | 1021.9 |
| 20260902151005 | 26 | 231 | 11.3 | 20.9 | 0.00 | 0.00 | 0.00 | 43 | 1021.8 |
| 20260902150005 | 27 | 226 | 9.7 | 20.9 | 0.00 | 0.00 | 0.00 | 41 | 1021.9 |
| 20260902145505 | 26 | 226 | 8.0 | 20.9 | 0.00 | 0.00 | 0.00 | 40 | 1021.9 |
| 20260902145005 | 26 | 233 | 8.0 | 16.1 | 0.00 | 0.00 | 0.00 | 41 | 1021.9 |
| 20260902144507 | 26 | 244 | 8.0 | 16.1 | 0.00 | 0.00 | 0.00 | 40 | 1022.0 |
| 20260902143506 | 26 | 251 | 6.4 | 16.1 | 0.00 | 0.00 | 0.00 | 38 | 1022.1 |
| 20260902143005 | 26 | 266 | 6.4 | 14.5 | 0.00 | 0.00 | 0.00 | 38 | 1022.0 |
| 20260902142505 | 26 | 266 | 8.0 | 17.7 | 0.00 | 0.00 | 0.00 | 38 | 1021.8 |
| 20260902142005 | 26 | 267 | 8.0 | 17.7 | 0.00 | 0.00 | 0.00 | 38 | 1021.9 |
| 20260902141505 | 26 | 266 | 6.4 | 17.7 | 0.00 | 0.00 | 0.00 | 38 | 1022.0 |
| 20260902141007 | 26 | 252 | 8.0 | 14.5 | 0.00 | 0.00 | 0.00 | 41 | 1022.0 |
| 20260902140506 | 26 | 265 | 8.0 | 14.5 | 0.00 | 0.00 | 0.00 | 40 | 1021.8 |
| 20260902140005 | 26 | 266 | 6.4 | 12.9 | 0.00 | 0.00 | 0.00 | 41 | 1022.0 |
| 20260902135005 | 26 | 259 | 9.7 | 20.9 | 0.00 | 0.00 | 0.00 | 39 | 1022.1 |
| 20260902134005 | 26 | 260 | 4.8 | 12.9 | 0.00 | 0.00 | 0.00 | 39 | 1022.0 |
| 20260902133506 | 26 | 245 | 6.4 | 16.1 | 0.00 | 0.00 | 0.00 | 39 | 1021.9 |
| 20260902133005 | 26 | 242 | 6.4 | 16.1 | 0.00 | 0.00 | 0.00 | 39 | 1022.1 |
| 20260902132505 | 26 | 241 | 6.4 | 11.3 | 0.00 | 0.00 | 0.00 | 37 | 1022.4 |
| 20260902132006 | 26 | 257 | 6.4 | 16.1 | 0.00 | 0.00 | 0.00 | 37 | 1022.2 |
| 20260902131505 | 26 | 272 | 9.7 | 16.1 | 0.00 | 0.00 | 0.00 | 37 | 1022.2 |
| 20260902131005 | 26 | 273 | 8.0 | 16.1 | 0.00 | 0.00 | 0.00 | 38 | 1022.3 |
| 20260902130505 | 26 | 277 | 8.0 | 14.5 | 0.00 | 0.00 | 0.00 | 37 | 1022.3 |
| 20260902125505 | 26 | 269 | 8.0 | 16.1 | 0.00 | 0.00 | 0.00 | 37 | 1022.4 |
| 20260902125006 | 25 | 267 | 6.4 | 16.1 | 0.00 | 0.00 | 0.00 | 38 | 1022.5 |
| 20260902124506 | 25 | 255 | 4.8 | 11.3 | 0.00 | 0.00 | 0.00 | 39 | 1022.6 |
| 20260902124006 | 26 | 243 | 4.8 | 8.0 | 0.00 | 0.00 | 0.00 | 45 | 1022.6 |
| 20260902123005 | 25 | 270 | 4.8 | 12.9 | 0.00 | 0.00 | 0.00 | 44 | 1022.5 |
| 20260902122505 | 25 | 288 | 6.4 | 12.9 | 0.00 | 0.00 | 0.00 | 43 | 1022.5 |
| 20260902122006 | 25 | 296 | 8.0 | 12.9 | 0.00 | 0.00 | 0.00 | 45 | 1022.6 |
| 20260902121505 | 25 | 275 | 8.0 | 14.5 | 0.00 | 0.00 | 0.00 | 45 | 1022.4 |
| 20260902121005 | 25 | 257 | 4.8 | 14.5 | 0.00 | 0.00 | 0.00 | 44 | 1022.6 |
| 20260902120505 | 25 | 240 | 4.8 | 14.5 | 0.00 | 0.00 | 0.00 | 45 | 1022.8 |
| 20260902120005 | 25 | 238 | 4.8 | 11.3 | 0.00 | 0.00 | 0.00 | 45 | 1022.5 |
| 20260902115005 | 25 | 239 | 6.4 | 16.1 | 0.00 | 0.00 | 0.00 | 45 | 1022.6 |
| 20260902114005 | 24 | 249 | 9.7 | 16.1 | 0.00 | 0.00 | 0.00 | 45 | 1022.6 |
| 20260902113505 | 24 | 244 | 8.0 | 16.1 | 0.00 | 0.00 | 0.00 | 45 | 1022.8 |
| 20260902113005 | 24 | 260 | 9.7 | 14.5 | 0.00 | 0.00 | 0.00 | 46 | 1022.8 |
| 20260902112505 | 24 | 257 | 8.0 | 12.9 | 0.00 | 0.00 | 0.00 | 45 | 1023.0 |
| 20260902111505 | 24 | 251 | 6.4 | 11.3 | 0.00 | 0.00 | 0.00 | 46 | 1023.1 |
| 20260902111005 | 24 | 263 | 8.0 | 14.5 | 0.00 | 0.00 | 0.00 | 47 | 1022.9 |
| 20260902110505 | 24 | 282 | 6.4 | 14.5 | 0.00 | 0.00 | 0.00 | 47 | 1022.9 |
| 20260902110007 | 24 | 251 | 6.4 | 12.9 | 0.00 | 0.00 | 0.00 | 48 | 1023.1 |
| 20260902105505 | 23 | 242 | 6.4 | 12.9 | 0.00 | 0.00 | 0.00 | 47 | 1023.1 |
| 20260902105006 | 23 | 243 | 4.8 | 12.9 | 0.00 | 0.00 | 0.00 | 48 | 1023.2 |
| 20260902103005 | 23 | 264 | 4.8 | 14.5 | 0.00 | 0.00 | 0.00 | 51 | 1023.3 |
| 20260902102005 | 22 | 277 | 4.8 | 11.3 | 0.00 | 0.00 | 0.00 | 54 | 1023.3 |
| 20260902101505 | 22 | 276 | 4.8 | 11.3 | 0.00 | 0.00 | 0.00 | 56 | 1023.2 |
| 20260902101005 | 22 | 268 | 4.8 | 9.7 | 0.00 | 0.00 | 0.00 | 61 | 1023.3 |
| 20260902100005 | 21 | 260 | 4.8 | 9.7 | 0.00 | 0.00 | 0.00 | 63 | 1023.2 |
| 20260902095505 | 21 | 253 | 4.8 | 11.3 | 0.00 | 0.00 | 0.00 | 63 | 1023.2 |
| 20260902095005 | 21 | 247 | 6.4 | 12.9 | 0.00 | 0.00 | 0.00 | 63 | 1023.4 |
| 20260902094505 | 21 | 247 | 4.8 | 12.9 | 0.00 | 0.00 | 0.00 | 62 | 1023.2 |
| 20260902094005 | 21 | 250 | 4.8 | 11.3 | 0.00 | 0.00 | 0.00 | 63 | 1023.2 |
| 20260902093505 | 21 | 246 | 6.4 | 11.3 | 0.00 | 0.00 | 0.00 | 63 | 1023.4 |
| 20260902093005 | 21 | 258 | 4.8 | 8.0 | 0.00 | 0.00 | 0.00 | 63 | 1023.4 |
| 20260902092505 | 20 | 264 | 4.8 | 6.4 | 0.00 | 0.00 | 0.00 | 63 | 1023.2 |
| 20260902092005 | 20 | 270 | 4.8 | 6.4 | 0.00 | 0.00 | 0.00 | 64 | 1023.3 |
| 20260902091505 | 20 | 275 | 4.8 | 6.4 | 0.00 | 0.00 | 0.00 | 65 | 1023.1 |
| 20260902090506 | 19 | 264 | 4.8 | 6.4 | 0.00 | 0.00 | 0.00 | 66 | 1023.3 |
| 20260902090005 | 19 | 251 | 3.2 | 9.7 | 0.00 | 0.00 | 0.00 | 68 | 1023.1 |
| 20260902085505 | 18 | 250 | 4.8 | 9.7 | 0.00 | 0.00 | 0.00 | 68 | 1023.2 |
| 20260902085005 | 18 | 246 | 4.8 | 8.0 | 0.00 | 0.00 | 0.00 | 68 | 1023.3 |
| 20260902084505 | 19 | 238 | 4.8 | 8.0 | 0.00 | 0.00 | 0.00 | 67 | 1023.3 |
| 20260902084005 | 18 | 232 | 4.8 | 8.0 | 0.00 | 0.00 | 0.00 | 68 | 1023.1 |
| 20260902083505 | 18 | 238 | 4.8 | 8.0 | 0.00 | 0.00 | 0.00 | 68 | 1022.9 |
| 20260902083005 | 18 | 237 | 3.2 | 6.4 | 0.00 | 0.00 | 0.00 | 68 | 1023.0 |
| 20260902082005 | 18 | 235 | 4.8 | 6.4 | 0.00 | 0.00 | 0.00 | 69 | 1022.8 |
| 20260902081506 | 18 | 236 | 3.2 | 6.4 | 0.00 | 0.00 | 0.00 | 70 | 1022.9 |
| 20260902081005 | 18 | 232 | 3.2 | 6.4 | 0.00 | 0.00 | 0.00 | 69 | 1022.8 |
| 20260902080005 | 18 | 212 | 1.6 | 4.8 | 0.00 | 0.00 | 0.00 | 70 | 1022.5 |
| 20260902075505 | 18 | 208 | 3.2 | 11.3 | 0.00 | 0.00 | 0.00 | 70 | 1022.3 |
| 20260902075005 | 18 | 219 | 4.8 | 11.3 | 0.00 | 0.00 | 0.00 | 70 | 1022.6 |
| 20260902074505 | 17 | 223 | 4.8 | 8.0 | 0.00 | 0.00 | 0.00 | 70 | 1022.6 |
| 20260902074005 | 18 | 227 | 6.4 | 8.0 | 0.00 | 0.00 | 0.00 | 69 | 1022.4 |
| 20260902073505 | 18 | 238 | 4.8 | 9.7 | 0.00 | 0.00 | 0.00 | 69 | 1022.4 |
| 20260902073007 | 18 | 238 | 6.4 | 12.9 | 0.00 | 0.00 | 0.00 | 69 | 1022.2 |
| 20260902072505 | 18 | 246 | 6.4 | 12.9 | 0.00 | 0.00 | 0.00 | 69 | 1022.0 |
| 20260902071505 | 18 | 257 | 1.6 | 6.4 | 0.00 | 0.00 | 0.00 | 71 | 1021.9 |
| 20260902071005 | 17 | 101 | 0.0 | 3.2 | 0.00 | 0.00 | 0.00 | 72 | 1021.8 |
| 20260902070506 | 17 | 87 | 0.0 | 0.0 | 0.00 | 0.00 | 0.00 | 73 | 1021.8 |
| 20260902070006 | 17 | 68 | 0.0 | 3.2 | 0.00 | 0.00 | 0.00 | 75 | 1021.6 |
| 20260902065505 | 17 | 72 | 0.0 | 3.2 | 0.00 | 0.00 | 0.00 | 76 | 1021.8 |
| 20260902065005 | 16 | 91 | 1.6 | 3.2 | 0.00 | 0.00 | 0.00 | 77 | 1021.9 |
| 20260902064005 | 16 | 92 | 1.6 | 3.2 | 0.00 | 0.00 | 0.00 | 76 | 1021.9 |
| 20260902063505 | 16 | 91 | 1.6 | 3.2 | 0.00 | 0.00 | 0.00 | 76 | 1022.0 |
| 20260902063005 | 16 | 94 | 0.0 | 3.2 | 0.00 | 0.00 | 0.00 | 76 | 1021.9 |
| 20260902062006 | 16 | 75 | 1.6 | 3.2 | 0.00 | 0.00 | 0.00 | 76 | 1022.0 |
| 20260902061505 | 16 | 70 | 3.2 | 8.0 | 0.00 | 0.00 | 0.00 | 76 | 1021.7 |
| 20260902061007 | 15 | 70 | 4.8 | 8.0 | 0.00 | 0.00 | 0.00 | 76 | 1021.7 |
| 20260902060505 | 15 | 71 | 3.2 | 8.0 | 0.00 | 0.00 | 0.00 | 77 | 1021.9 |
| 20260902060005 | 15 | 69 | 3.2 | 9.7 | 0.00 | 0.00 | 0.00 | 77 | 1021.9 |
| 20260902055505 | 15 | 66 | 4.8 | 9.7 | 0.00 | 0.00 | 0.00 | 78 | 1022.0 |
| 20260902054005 | 14 | 69 | 4.8 | 6.4 | 0.00 | 0.00 | 0.00 | 80 | 1021.9 |
| 20260902053505 | 14 | 65 | 4.8 | 9.7 | 0.00 | 0.00 | 0.00 | 80 | 1022.0 |
| 20260902053005 | 14 | 68 | 4.8 | 9.7 | 0.00 | 0.00 | 0.00 | 80 | 1022.1 |
| 20260902052505 | 14 | 72 | 3.2 | 6.4 | 0.00 | 0.00 | 0.00 | 81 | 1021.9 |
| 20260902052005 | 14 | 74 | 3.2 | 6.4 | 0.00 | 0.00 | 0.00 | 81 | 1021.8 |
| 20260902051505 | 13 | 74 | 3.2 | 6.4 | 0.00 | 0.00 | 0.00 | 81 | 1021.9 |
| 20260902051005 | 13 | 77 | 3.2 | 6.4 | 0.00 | 0.00 | 0.00 | 81 | 1021.8 |
| 20260902050008 | 13 | 76 | 4.8 | 8.0 | 0.00 | 0.00 | 0.00 | 81 | 1021.6 |
| 20260902045505 | 13 | 79 | 4.8 | 8.0 | 0.00 | 0.00 | 0.00 | 81 | 1021.7 |
| 20260902044505 | 13 | 79 | 4.8 | 6.4 | 0.00 | 0.00 | 0.00 | 80 | 1021.7 |
| 20260902044005 | 13 | 76 | 3.2 | 6.4 | 0.00 | 0.00 | 0.00 | 80 | 1021.8 |
| 20260902043506 | 13 | 70 | 3.2 | 6.4 | 0.00 | 0.00 | 0.00 | 80 | 1021.7 |
| 20260902042505 | 14 | 69 | 1.6 | 3.2 | 0.00 | 0.00 | 0.00 | 80 | 1021.7 |
| 20260902041005 | 14 | 87 | 3.2 | 4.8 | 0.00 | 0.00 | 0.00 | 79 | 1021.7 |
| 20260902040505 | 14 | 93 | 1.6 | 4.8 | 0.00 | 0.00 | 0.00 | 79 | 1021.6 |
| 20260902040007 | 14 | 90 | 1.6 | 4.8 | 0.00 | 0.00 | 0.00 | 78 | 1021.5 |
| 20260902035505 | 14 | 90 | 1.6 | 3.2 | 0.00 | 0.00 | 0.00 | 78 | 1021.6 |
| 20260902035005 | 14 | 88 | 1.6 | 4.8 | 0.00 | 0.00 | 0.00 | 78 | 1021.6 |
| 20260902034505 | 14 | 86 | 3.2 | 6.4 | 0.00 | 0.00 | 0.00 | 78 | 1021.6 |
| 20260902034005 | 14 | 86 | 4.8 | 6.4 | 0.00 | 0.00 | 0.00 | 79 | 1021.6 |
| 20260902033504 | 14 | 82 | 3.2 | 6.4 | 0.00 | 0.00 | 0.00 | 79 | 1021.5 |
| 20260902032504 | 14 | 85 | 3.2 | 6.4 | 0.00 | 0.00 | 0.00 | 79 | 1021.8 |
| 20260902032005 | 14 | 89 | 3.2 | 6.4 | 0.00 | 0.00 | 0.00 | 79 | 1021.7 |
| 20260902031506 | 14 | 95 | 3.2 | 6.4 | 0.00 | 0.00 | 0.00 | 79 | 1021.8 |
| 20260902031004 | 14 | 91 | 3.2 | 6.4 | 0.00 | 0.00 | 0.00 | 79 | 1022.1 |
| 20260902030505 | 14 | 94 | 3.2 | 6.4 | 0.00 | 0.00 | 0.00 | 79 | 1022.0 |
| 20260902025504 | 14 | 95 | 3.2 | 6.4 | 0.00 | 0.00 | 0.00 | 78 | 1022.1 |
| 20260902025006 | 14 | 92 | 3.2 | 6.4 | 0.00 | 0.00 | 0.00 | 78 | 1022.0 |
| 20260902024505 | 14 | 84 | 4.8 | 6.4 | 0.00 | 0.00 | 0.00 | 79 | 1022.3 |
| 20260902023505 | 14 | 90 | 3.2 | 4.8 | 0.00 | 0.00 | 0.00 | 79 | 1022.1 |
| 20260902023004 | 14 | 95 | 3.2 | 4.8 | 0.00 | 0.00 | 0.00 | 79 | 1022.1 |
| 20260902022506 | 14 | 93 | 3.2 | 4.8 | 0.00 | 0.00 | 0.00 | 79 | 1022.1 |
| 20260902022005 | 14 | 94 | 3.2 | 4.8 | 0.00 | 0.00 | 0.00 | 78 | 1021.9 |
| 20260902021005 | 14 | 90 | 3.2 | 4.8 | 0.00 | 0.00 | 0.00 | 77 | 1022.0 |
| 20260902020505 | 14 | 90 | 1.6 | 4.8 | 0.00 | 0.00 | 0.00 | 77 | 1021.9 |
| 20260902020006 | 15 | 88 | 1.6 | 3.2 | 0.00 | 0.00 | 0.00 | 77 | 1022.1 |
| 20260902015504 | 14 | 87 | 1.6 | 3.2 | 0.00 | 0.00 | 0.00 | 77 | 1021.9 |
| 20260902013505 | 15 | 77 | 1.6 | 3.2 | 0.00 | 0.00 | 0.00 | 76 | 1022.0 |
| 20260902013005 | 15 | 77 | 3.2 | 3.2 | 0.00 | 0.00 | 0.00 | 76 | 1021.9 |
| 20260902012505 | 15 | 79 | 3.2 | 4.8 | 0.00 | 0.00 | 0.00 | 75 | 1021.9 |
| 20260902012005 | 15 | 81 | 3.2 | 4.8 | 0.00 | 0.00 | 0.00 | 75 | 1021.9 |
| 20260902011505 | 15 | 82 | 3.2 | 4.8 | 0.00 | 0.00 | 0.00 | 75 | 1022.0 |
| 20260902010505 | 15 | 88 | 3.2 | 6.4 | 0.00 | 0.00 | 0.00 | 74 | 1022.1 |
| 20260902010005 | 15 | 87 | 3.2 | 6.4 | 0.00 | 0.00 | 0.00 | 74 | 1022.1 |
| 20260902005006 | 15 | 84 | 3.2 | 4.8 | 0.00 | 0.00 | 0.00 | 73 | 1022.4 |
| 20260902004505 | 15 | 85 | 3.2 | 4.8 | 0.00 | 0.00 | 0.00 | 73 | 1022.3 |
| 20260902004005 | 16 | 84 | 4.8 | 6.4 | 0.00 | 0.00 | 0.00 | 73 | 1022.2 |
| 20260902003504 | 16 | 81 | 4.8 | 6.4 | 0.00 | 0.00 | 0.00 | 73 | 1022.3 |
| 20260902003005 | 16 | 82 | 3.2 | 6.4 | 0.00 | 0.00 | 0.00 | 73 | 1022.3 |
| 20260902002004 | 16 | 83 | 3.2 | 4.8 | 0.00 | 0.00 | 0.00 | 73 | 1022.4 |
| 20260902001504 | 16 | 78 | 3.2 | 4.8 | 0.00 | 0.00 | 0.00 | 72 | 1022.2 |
| 20260902001005 | 16 | 68 | 3.2 | 4.8 | 0.00 | 0.00 | 0.00 | 72 | 1022.5 |
| 20260902000005 | 16 | 57 | 3.2 | 3.2 | 0.00 | 0.00 | 0.00 | 72 | 1022.4 |
| 20260901235505 | 16 | 54 | 3.2 | 4.8 | 0.00 | 0.00 | 0.00 | 72 | 1022.4 |
| 20260901235005 | 16 | 48 | 3.2 | 6.4 | 0.00 | 0.00 | 0.00 | 72 | 1022.4 |
| 20260901234504 | 16 | 47 | 3.2 | 6.4 | 0.00 | 0.00 | 0.00 | 72 | 1022.4 |
| 20260901234006 | 16 | 54 | 3.2 | 4.8 | 0.00 | 0.00 | 0.00 | 72 | 1022.4 |
| 20260901233005 | 16 | 52 | 3.2 | 6.4 | 0.00 | 0.00 | 0.00 | 72 | 1022.7 |
| 20260901232505 | 16 | 46 | 4.8 | 6.4 | 0.00 | 0.00 | 0.00 | 72 | 1022.7 |
| 20260901232004 | 16 | 45 | 3.2 | 6.4 | 0.00 | 0.00 | 0.00 | 72 | 1022.8 |
| 20260901231505 | 16 | 42 | 3.2 | 6.4 | 0.00 | 0.00 | 0.00 | 72 | 1022.6 |
| 20260901231005 | 16 | 38 | 3.2 | 6.4 | 0.00 | 0.00 | 0.00 | 72 | 1022.6 |
| 20260901230506 | 16 | 36 | 3.2 | 6.4 | 0.00 | 0.00 | 0.00 | 72 | 1022.7 |
| 20260901230005 | 16 | 44 | 3.2 | 6.4 | 0.00 | 0.00 | 0.00 | 72 | 1022.9 |
| 20260901225504 | 16 | 53 | 3.2 | 6.4 | 0.00 | 0.00 | 0.00 | 72 | 1022.7 |
| 20260901225004 | 16 | 58 | 3.2 | 6.4 | 0.00 | 0.00 | 0.00 | 72 | 1022.8 |
| 20260901224504 | 16 | 62 | 3.2 | 6.4 | 0.00 | 0.00 | 0.00 | 72 | 1022.6 |
| 20260901224004 | 17 | 60 | 3.2 | 8.0 | 0.00 | 0.00 | 0.00 | 71 | 1022.7 |
| 20260901223505 | 17 | 57 | 4.8 | 8.0 | 0.00 | 0.00 | 0.00 | 71 | 1022.9 |
| 20260901223006 | 17 | 54 | 3.2 | 8.0 | 0.00 | 0.00 | 0.00 | 70 | 1022.7 |
| 20260901222506 | 17 | 44 | 3.2 | 4.8 | 0.00 | 0.00 | 0.00 | 69 | 1022.9 |
| 20260901222005 | 17 | 41 | 1.6 | 3.2 | 0.00 | 0.00 | 0.00 | 69 | 1022.7 |
| 20260901221504 | 17 | 41 | 3.2 | 4.8 | 0.00 | 0.00 | 0.00 | 69 | 1022.6 |
| 20260901221005 | 17 | 44 | 1.6 | 4.8 | 0.00 | 0.00 | 0.00 | 65 | 1022.7 |
| 20260901220505 | 17 | 47 | 3.2 | 6.4 | 0.00 | 0.00 | 0.00 | 65 | 1022.6 |
| 20260901220006 | 17 | 43 | 3.2 | 6.4 | 0.00 | 0.00 | 0.00 | 65 | 1022.7 |
| 20260901215505 | 17 | 43 | 3.2 | 6.4 | 0.00 | 0.00 | 0.00 | 64 | 1022.7 |